Погода Свободный

Погода Свободный : погода сейчас, прогноз погоды и архив. Всё, что Вы хотите узнать о погоде Свободный!

Хотите узнать прогноз погоды Свободный? Тогда Вам сюда: Погода Свободный

Поиск расширенной информации на нашем сайте:

Другие новости

Новости СМИ2

Главная страница сайта

Новости сайта

02.10.2013

Напоминаем, что на нашем новом сайте вы можете получить высокодетализированные прогнозы погоды по пунктам России, СНГ и мира (включающие важные для авиации метеовеличины, такие как направление и скорость ветра, видимость, явления погоды, количество и форма облачности, нижняя и верхняя граница облачности), а также ознакомиться с разнообразными материалами по авиационной метеорологии и подборкой полезных ссылок на эту тему.

Сайт Метеоцентр.Азия посвящён разработке технологий оптимизации авиаметеорологического обслуживания, включая проектирование и перспективное создание нескольких автоматизированных авиаметеорологических систем:
- система выпуска высокодетальных прогностических карт явлений погоды для нижнего воздушного пространства по России и ближнему зарубежью;
- система верификации прогнозов TAF (выпускаемых синоптиками официальных АМСГ РФ и ближнего зарубежья) и AUTOTAF (выпускаемых сайтом Метеоцентр.Азия) - выявление ошибок, онлайн-сопоставление с фактической погодой METAR, автоматическое внесение коррективов в прогнозы при резком отклонении фактической погоды от прогноза, подсчёт оправдываемости прогнозов по элементам и в целом;
- система обработки, анализа и отображения авиаметеорологической информации для применения провайдерами метеорологической информации.


Погода Свободный - сегодня

Время (UTC), дата Ветер
(°,м/с) 
Видим.   Явления Облачность Т
(°С)
Тd
(°С)
f(%) Тe
(°С)
Pmin
(гПа)
dP
(гПа)
Po
(мм)
O2
(г/м3)
Тmin Tmax R s Состояние
почвы
21 19.03.17 320 (СЗ) 50000 м    10/0 верхняя 
[Ci fib]
-6.9 -10.6 75 -7  1021.1  -0.3  746  310           
00 20.03.17 320 (СЗ) 20000 м    6/0 верхняя 
[Ci fib]
-1.1 -9.2 54 -2  1020.7  0.1  747  303  -8.3         
03 20.03.17 330 (СЗ) 20000 м    10/0 верхняя 
[Ci fib]
+5.2 -10.2 32 +4  1019.6  -0.5  746  296           
06 20.03.17 330 (СЗ) 2{10}  20000 м    10/0 верхняя 
[Ci fib]
+6.5 -10.3 29 +6  1018.4  -1.1  745  294           
09 20.03.17 330 (СЗ) 20000 м    5/0 верхняя 
[Ci fib]
+3.9 -11.4 32 +5  1018.3  -0.3  745  297           
12 20.03.17 300 (СЗ) 50000 м    ясно 
-1.5 -11.1 48 -3  1019.3  0.5  746  303    +7.1       
15 20.03.17 290 (З) 50000 м    ясно 
-4.4 -22.4 23 -7  1018.7  -0.4  745  307           
18 20.03.17 290 (З) 50000 м    ясно 
-5.2 -11.8 60 -8  1018.4  -0.8  745  307           
21 20.03.17 290 (З) 50000 м    3/0 средняя 
[Ac trans]
-5.8 -12.1 61 -9  1011.7  -0.7  744  307           
00 21.03.17 320 (СЗ) 20000 м    6/0 средняя, верхняя 
[Ac trans|Ci fib]
-2.3 -12.6 45 -5  1016.7  -0.6  744  303  -6.2         
03 21.03.17 320 (СЗ) 3{10}  20000 м    10/0 средняя, верхняя 
[Ac trans|Ci fib]
+1.3 -13.7 32 1015.8  -0.6  743  299           
06 21.03.17 330 (СЗ) 3{11}  20000 м    3/3 1000 м 
[Cu hum]
+2.6 -13.8 29 +1  1014.4  -1.2  742  297           
09 21.03.17 320 (СЗ) 20000 м    3/3 1000 м 
[Sc diur, vesp]
-0.3 -14.6 33 -2  1015  0.2  742  301           
12 21.03.17 290 (З) 50000 м    ясно 
-5.6 -12.4 59 -8  1015.5  0.1  743  307    +2.6       
15 21.03.17 280 (З) 50000 м    ясно 
-7.1 -13 63 -9  1015.4  -0.3  742  308           
18 21.03.17 290 (З) 50000 м    ясно 
-8.6 -12.7 72 -10  1015.3  -0.2  742  310           
21 21.03.17 280 (З) 50000 м    ясно 
-9.6 -13.2 75 -11  1015.8  0.3  742  311           
00 22.03.17 340 (С) 20000 м    ясно 
-2 -11.8 47 -1  1015.7  0.6  743  303  -9.6         
03 22.03.17 010 (С) 20000 м    1/1 1000 м 
[Cu hum]
+2.2 -14 29 +2  1015.9  0.6  743  298           
06 22.03.17 330 (СЗ) 20000 м    8/8 600 м кучево-дожд. 
[Cb calv]
+3.4 -15.3 24 +3  1016  0.2  743  297           
09 22.03.17 350 (С) 20000 м    4/4 600 м кучево-дожд. 
[Cb calv]
+1.1 -11.3 39 1017.6  1.3  744  300           
12 22.03.17 330 (СЗ) 50000 м    3/0 верхняя 
[Ci sp]
-3.3 -10 60 -3  1019.8  1.8  746  305    +4.5       
15 22.03.17 310 (СЗ) 50000 м    ясно 
-5.8 -10.8 68 -7  1021.1  747  308           
18 22.03.17 290 (З) 50000 м    ясно 
-7.8 -11.3 76 -9  1021.8  0.5  747  311           
21 22.03.17 300 (СЗ) 50000 м    ясно 
-8.7 -13.7 67 -8  1022.7  0.8  748  312           
Время (UTC), дата Ветер
(°,м/с) 
Видим.   Явления Облачность Т
(°С)
Тd
(°С)
f(%) Тe
(°С)
Pmin
(гПа)
dP
(гПа)
Po
(мм)
O2
(г/м3)
Тmin Tmax R s Состояние
почвы

Для получения пояснительной информации подведите курсор к названию столбца.

ПОГОДА Свободный - архив

Всё, что Вы хотите узнать о погоде Свободный - удобно и подробно!

Выберите нужную дату (начиная с 1 января 2015* года) и нажмите кнопку "Найти".
Будут отображены архивные сводки погоды по пункту Свободный, начиная с указанной даты.


Отображать данные в формате CSV (для использования в таблицах Excel)


Внимание! Наш архив погоды предназначен исключительно для личного некоммерческого использования в познавательных целях. Если Вам необходимы официальные справки о состоянии погоды (для производственных, юридических, коммерческих и т.п. целей), обращайтесь в органы Росгидромета.

*Примечание: данная дата относится к архиву по метеостанциям СССР (Россия, СНГ, Балтия).
Архив по метеостанциям Зарубежной Европы и Азии (кроме Китая) хранится 10 дней, по другим регионам земного шара (Китай, Африка, Америка, Австралия, Океания) - 1 день.

Свободный - район местоположения метеостанции


Название, широта, долгота, высота метеостанции:
Свободный 51.4°ш. 128.1°д. 197 м над ур. моря [Российская Федерация]

Дополнительная информация

В oтличие oт бoльшинства пoгoдных сайтoв мы публикуем пoдрoбную метеoинфoрмацию в детальнoм прoфессиoнальнoм фoрмате.

Характеристики температуры и влажнoсти вoздуха измеряются на высoте 2 м в тени вдали oт зданий и деревьев.
Скoрoсть ветра измеряется на высoте 10 м (на урoвне рoста челoвека скoрoсть ветра ниже в 1.5-2 раза). Если метеoстанция нахoдится в гoрoде или в лесу, тo скoрoсть ветра занижена на 2-4 м/с пo сравнению с oткрытым местoм. Скoрoсть ветра над акватoриями крупных рек и oзёр, а также на вершинах хoлмoв на 2-5 м/с выше, чем в oбычных услoвиях.
Атмoсфернoе давление в разных тoчках местнoсти мoжет значительнo oтличаться oт давления на метеoстанции, в зависимoсти oт услoвий рельефа (при пoдъёме на 10 м давление пoнижается примернo на 1 мм рт.ст.).